When you browse on this site, cookies collect data to enhance your experience and personalize the content and advertising you see.
Visit our Privacy Policy to learn more. By continuing to use the site, you agree to this use of cookies and data.
  • In Hungary
  • List of Countries
  • For 7 days
  • Water Temperature
  • Satellite Maps
  • Weather Map
  • News
  • Weather Widgets
  • user-avatar
    Login

    Hourly Weather Smigowiec

    Today, 21 May, Tuesday

    Time Temperature Precipitation Wind Pressure Humidity
    00:00 +13°C° 0 mm 2 mps 733 mmHg 94%
    01:00 +13°C° 0 mm 2 mps 732 mmHg 95%
    02:00 +13°C° 0 mm 1 mps 732 mmHg 94%
    03:00 +12°C° 0 mm 1 mps 732 mmHg 94%
    04:00 +11°C° 0 mm 0 mps 732 mmHg 94%
    05:00 +13°C° 0 mm 1 mps 732 mmHg 91%
    06:00 +14°C° 0 mm 1 mps 732 mmHg 89%
    07:00 +15°C° 0 mm 1 mps 732 mmHg 88%
    08:00 +15°C° 0.7 mm 2 mps 732 mmHg 87%
    09:00 +16°C° 0.7 mm 3 mps 731 mmHg 87%
    10:00 +16°C° 0.7 mm 3 mps 731 mmHg 86%
    11:00 +16°C° 1.9 mm 3 mps 731 mmHg 88%
    12:00 +15°C° 1.9 mm 4 mps 731 mmHg 89%
    13:00 +15°C° 1.9 mm 4 mps 731 mmHg 91%
    14:00 +15°C° 1.6 mm 4 mps 730 mmHg 90%
    15:00 +15°C° 1.6 mm 5 mps 730 mmHg 88%
    16:00 +16°C° 1.6 mm 5 mps 730 mmHg 87%
    17:00 +15°C° 1.5 mm 5 mps 730 mmHg 88%
    18:00 +15°C° 1.5 mm 5 mps 730 mmHg 88%
    19:00 +15°C° 1.5 mm 4 mps 729 mmHg 89%
    20:00 +14°C° 1.1 mm 4 mps 730 mmHg 91%
    21:00 +14°C° 1.1 mm 4 mps 730 mmHg 93%
    22:00 +13°C° 1.1 mm 4 mps 730 mmHg 94%
    23:00 +13°C° 0.2 mm 4 mps 730 mmHg 95%

    Tomorrow, 22 May, Wednesday

    Time Temperature Precipitation Wind Pressure Humidity
    00:00 +13°C° 0.2 mm 4 mps 730 mmHg 95%
    01:00 +13°C° 0.2 mm 4 mps 730 mmHg 96%
    02:00 +13°C° 0.5 mm 3 mps 730 mmHg 96%
    03:00 +13°C° 0.5 mm 3 mps 730 mmHg 96%
    04:00 +13°C° 0.5 mm 3 mps 730 mmHg 97%
    05:00 +13°C° 0.7 mm 3 mps 730 mmHg 94%
    06:00 +14°C° 0.7 mm 3 mps 730 mmHg 92%
    07:00 +14°C° 0.7 mm 3 mps 730 mmHg 89%
    08:00 +14°C° 0.3 mm 3 mps 730 mmHg 89%
    09:00 +14°C° 0.3 mm 3 mps 731 mmHg 89%
    10:00 +14°C° 0.3 mm 3 mps 731 mmHg 89%
    11:00 +15°C° 0.1 mm 4 mps 731 mmHg 87%
    12:00 +15°C° 0.1 mm 4 mps 731 mmHg 85%
    13:00 +17°C° 0.1 mm 4 mps 731 mmHg 83%
    14:00 +16°C° 0.2 mm 5 mps 731 mmHg 82%
    15:00 +16°C° 0.2 mm 5 mps 731 mmHg 82%
    16:00 +16°C° 0.2 mm 5 mps 731 mmHg 81%
    17:00 +17°C° 0.8 mm 4 mps 731 mmHg 85%
    18:00 +15°C° 0.8 mm 4 mps 731 mmHg 88%
    19:00 +14°C° 0.8 mm 3 mps 732 mmHg 91%
    20:00 +14°C° 0.6 mm 3 mps 732 mmHg 93%
    21:00 +13°C° 0.6 mm 3 mps 732 mmHg 95%
    22:00 +13°C° 0.6 mm 3 mps 733 mmHg 96%
    23:00 +13°C° 0.5 mm 3 mps 733 mmHg 96%

    Day after tomorrow, 23 May, Thursday

    Time Temperature Precipitation Wind Pressure Humidity
    00:00 +13°C° 0.5 mm 3 mps 733 mmHg 97%
    01:00 +13°C° 0.5 mm 4 mps 733 mmHg 97%
    02:00 +13°C° 0.4 mm 4 mps 734 mmHg 97%
    03:00 +13°C° 0.4 mm 4 mps 734 mmHg 96%
    04:00 +14°C° 0.4 mm 4 mps 734 mmHg 96%
    05:00 +14°C° 0.8 mm 5 mps 734 mmHg 95%
    06:00 +14°C° 0.8 mm 5 mps 735 mmHg 94%
    07:00 +14°C° 0.8 mm 5 mps 735 mmHg 93%
    08:00 +15°C° 0.6 mm 5 mps 736 mmHg 92%
    09:00 +15°C° 0.6 mm 6 mps 736 mmHg 91%
    10:00 +15°C° 0.6 mm 6 mps 736 mmHg 89%
    11:00 +16°C° 1 mm 7 mps 737 mmHg 89%
    12:00 +16°C° 1 mm 7 mps 737 mmHg 88%
    13:00 +16°C° 1 mm 8 mps 737 mmHg 87%
    14:00 +15°C° 0.3 mm 8 mps 737 mmHg 89%
    15:00 +14°C° 0.3 mm 7 mps 737 mmHg 91%
    16:00 +12°C° 0.3 mm 7 mps 737 mmHg 92%
    17:00 +12°C° 0.1 mm 7 mps 738 mmHg 92%
    18:00 +13°C° 0.1 mm 6 mps 738 mmHg 93%
    19:00 +13°C° 0.1 mm 6 mps 738 mmHg 93%
    20:00 +13°C° 0.1 mm 6 mps 738 mmHg 93%
    21:00 +11°C° 0.1 mm 6 mps 738 mmHg 92%
    22:00 +12°C° 0.1 mm 5 mps 739 mmHg 92%
    23:00 +12°C° 0 mm 5 mps 739 mmHg 92%

    24 May, Friday

    Time Temperature Precipitation Wind Pressure Humidity
    00:00 +12°C° 0 mm 5 mps 739 mmHg 92%
    01:00 +12°C° 0 mm 5 mps 739 mmHg 92%
    02:00 +11°C° 0.2 mm 4 mps 739 mmHg 92%
    03:00 +11°C° 0.2 mm 4 mps 739 mmHg 92%
    04:00 +10°C° 0.2 mm 4 mps 739 mmHg 92%
    05:00 +10°C° 0.5 mm 4 mps 739 mmHg 92%
    06:00 +10°C° 0.5 mm 4 mps 739 mmHg 91%
    07:00 +10°C° 0.5 mm 4 mps 739 mmHg 90%
    08:00 +11°C° 0.2 mm 4 mps 739 mmHg 87%
    09:00 +11°C° 0.2 mm 3 mps 739 mmHg 84%
    10:00 +12°C° 0.2 mm 3 mps 739 mmHg 81%
    11:00 +13°C° 0 mm 3 mps 739 mmHg 78%
    12:00 +14°C° 0 mm 3 mps 739 mmHg 75%
    13:00 +16°C° 0 mm 3 mps 738 mmHg 72%
    14:00 +17°C° 0 mm 3 mps 738 mmHg 71%
    15:00 +17°C° 0 mm 3 mps 738 mmHg 70%
    16:00 +18°C° 0 mm 3 mps 738 mmHg 69%
    17:00 +17°C° 0 mm 2 mps 738 mmHg 72%
    18:00 +16°C° 0 mm 2 mps 737 mmHg 75%
    19:00 +15°C° 0 mm 2 mps 737 mmHg 78%
    20:00 +14°C° 0 mm 2 mps 737 mmHg 79%
    21:00 +13°C° 0 mm 2 mps 737 mmHg 81%
    22:00 +12°C° 0 mm 2 mps 738 mmHg 82%
    23:00 +12°C° 0 mm 2 mps 737 mmHg 84%

    25 May, Saturday

    Time Temperature Precipitation Wind Pressure Humidity
    00:00 +10°C° 0 mm 2 mps 737 mmHg 85%
    01:00 +10°C° 0 mm 2 mps 737 mmHg 86%
    02:00 +10°C° 0 mm 2 mps 737 mmHg 87%
    03:00 +9°C° 0 mm 2 mps 737 mmHg 88%
    04:00 +9°C° 0 mm 2 mps 737 mmHg 89%
    05:00 +11°C° 0 mm 3 mps 737 mmHg 85%
    06:00 +13°C° 0 mm 3 mps 737 mmHg 81%
    07:00 +14°C° 0 mm 4 mps 737 mmHg 77%
    08:00 +15°C° 0.2 mm 4 mps 737 mmHg 74%
    09:00 +17°C° 0.2 mm 5 mps 737 mmHg 71%
    10:00 +19°C° 0.2 mm 5 mps 737 mmHg 68%
    11:00 +19°C° 0.6 mm 6 mps 737 mmHg 69%
    12:00 +19°C° 0.6 mm 6 mps 737 mmHg 70%
    13:00 +19°C° 0.6 mm 6 mps 737 mmHg 72%
    14:00 +17°C° 0.1 mm 6 mps 736 mmHg 69%
    15:00 +17°C° 0.1 mm 6 mps 736 mmHg 67%
    16:00 +17°C° 0.1 mm 6 mps 736 mmHg 64%
    17:00 +16°C° 0 mm 5 mps 737 mmHg 70%
    18:00 +14°C° 0 mm 4 mps 737 mmHg 76%
    19:00 +12°C° 0 mm 3 mps 737 mmHg 81%
    20:00 +11°C° 0 mm 3 mps 737 mmHg 85%
    21:00 +10°C° 0 mm 2 mps 737 mmHg 88%
    22:00 +9°C° 0 mm 2 mps 737 mmHg 92%
    23:00 +9°C° 0 mm 2 mps 737 mmHg 92%

    26 May, Sunday

    Time Temperature Precipitation Wind Pressure Humidity
    00:00 +9°C° 0 mm 3 mps 737 mmHg 92%
    01:00 +9°C° 0 mm 3 mps 737 mmHg 92%
    02:00 +8°C° 0 mm 3 mps 737 mmHg 92%
    03:00 +8°C° 0 mm 3 mps 737 mmHg 91%
    04:00 +7°C° 0 mm 3 mps 737 mmHg 90%
    05:00 +8°C° 0 mm 4 mps 737 mmHg 87%
    06:00 +9°C° 0 mm 5 mps 737 mmHg 83%
    07:00 +10°C° 0 mm 6 mps 737 mmHg 80%
    08:00 +11°C° 0.1 mm 7 mps 736 mmHg 76%
    09:00 +11°C° 0.1 mm 7 mps 736 mmHg 73%
    10:00 +12°C° 0.1 mm 7 mps 736 mmHg 70%
    11:00 +12°C° 0 mm 7 mps 736 mmHg 69%
    12:00 +12°C° 0 mm 7 mps 736 mmHg 68%
    13:00 +12°C° 0 mm 7 mps 736 mmHg 68%
    14:00 +12°C° 0 mm 7 mps 736 mmHg 68%
    15:00 +12°C° 0 mm 7 mps 736 mmHg 68%
    16:00 +13°C° 0 mm 6 mps 736 mmHg 68%
    17:00 +12°C° 0 mm 5 mps 736 mmHg 72%
    18:00 +10°C° 0 mm 5 mps 736 mmHg 75%
    19:00 +11°C° 0 mm 4 mps 736 mmHg 78%
    20:00 +10°C° 0 mm 3 mps 736 mmHg 79%
    21:00 +9°C° 0 mm 3 mps 736 mmHg 79%
    22:00 +8°C° 0 mm 3 mps 736 mmHg 80%
    23:00 +8°C° 0 mm 3 mps 736 mmHg 82%
    Show more